Location: Asarope
(8.2500°N, 4.4833°E)
Time: 14:06:42
(UTC+00:00)

Hubble Space Telescope - Pass Details

Date: 03 August 2021
Orbit: 535 x 539 km, 28.5° (Epoch: 18 September)

Event Time Altitude Azimuth Distance (km) Brightness Sun altitude
Rises 18:53:53 0° 325° (NW) 2,665 5.3 -13.0°
Reaches altitude 10° 18:57:32 10° 358° (N) 1,774 3.7 -13.8°
Maximum altitude 18:59:03 12° 20° (NNE) 1,663 3.3 -14.2°
Drops below altitude 10° 19:00:35 10° 42° (NE) 1,774 3.2 -14.5°
Enters shadow 19:01:27 - 52° (NE) 1,922 3.3 -14.7°
